COSMOS 1275 DEB, 12667

Orbit data source: Space-Track

COSMOS 1275 DEB, 12667 is space debris in LEO originally from a launch on Thu, 04 Jun 1981 UTC launched from the Plesetsk Missile And Space Complex (PKMTR). Debris objects in space refer to the collection of defunct objects orbiting the Earth. Examples of debris include non-operational satellites, rocket bodies, and fragments generated from explosions, collisions, or faulty payload assembly.

Loading next visibility...
Identifier
12667, 1981-053X
Orbit
LEO
Country
Flag of CISCIS
Related business
Manufacturer
Unknown
Mission
Spacecraft
Bus & Motor
Unknown
Mass
Unknown
Launch date (UTC)
1981-06-04 (45 years ago)
Launch vehicle
Unknown
Launch site
Plesetsk Missile And Space Complex (PKMTR)
Object type
Payload
Rocket body
Debris
Shape & HBR
Unknown shape, 0.1 m
Radar Cross Section
Medium (>0.1 m² and <1 m²)

Expand to show TLE details & history
Last TLE update: 18 hours ago

TLE from 18 hours ago
0 COSMOS 1275 DEB
1 12667U 81053X   26150.13590324  .00000722  00000-0  63671-3 0  9997
2 12667  82.8389  31.5808 0035063 118.1920  34.0401 13.83620361252033
Epoch: 2026-05-30T03:15Z
TLE epoch observation values (Epoch: 2026-05-30T03:15:42.039Z)
Latitude
27.34843°
Longitude
-88.70694°
Altitude
933.15 km
Speed
7.398 km/s
True Right ascension
13h 51m 29s
True Declination
27° 12' 42"
Sunlit
Object was in daylight at epoch
Visualization orbit readout
Latitude
Unknown
Longitude
Unknown
Altitude
Unknown
Speed
Unknown
Apparent Right ascension
Unknown
Apparent Declination
Unknown
Sunlit
N/A
Visualization observer readout
Local Sidereal Time
07:01:56
Azimuth
Unknown
Elevation
Unknown
Doppler factor
Unknown
Orbital elements
Apogee altitude
973.903 km
Perigee altitude
922.526 km
Semi-major axis
7,326.352 km
Eccentricity
0.00351
Inclination
82.8389°
RAAN
31.5808°
Arg. of periapsis
118.192°
True anomaly
34.26583°
Mean anomaly
34.0401°
Eccentric anomaly
34.15288°
Mean motion
3.46108 °/min
Orbital period
104.01 mins
BSTAR
0.00063671
Loading maneuver chart data...
Computing Atmospheric mass density...
Loading historical data...
Loading historical data...
Loading historical data...
Loading historical data...
Loading historical data...
Loading historical data...
Loading historical data...

Documentation

Showing up to 5 results
|